Location: ??????
(55.7522°N, 37.6156°E)
Time: 16:49:56
(UTC+00:00)

Cosmos 1570 Rocket - Pass Details

Date: 14 June 2025
Orbit: 759 x 784 km, 74.1° (Epoch: 12 July)

Event Time Altitude Azimuth Distance (km) Brightness Sun altitude
Rises 22:58:52 0° 332° (NNW) 3,289 7.9 -8.7°
Reaches altitude 10° 23:01:16 10° 334° (NNW) 2,357 7.2 -8.6°
Maximum altitude 23:06:39 74° 60° (ENE) 821 4.3 -8.3°
Drops below altitude 10° 23:11:58 10° 146° (SE) 2,337 6.2 -8.0°
Sets 23:14:21 0° 148° (SSE) 3,259 6.9 -7.9°
